N27JY PHJR-PKMJ

Flight info

Callsign N27JY
Flight time N/A
Altitude 34000
Route CHOKO R584 MANRE/N0483F360 R584 MAZZA/N0476F380 R584 MAJ
Aircraft CL60/M-SBDE1E2E3FGHIJ1J4J5J7M3RWXYZ/LB1V1D1

Departure

Time N/A
Airport Kalaeloa Airport (PHJR)

Arrival

Time 2026-04-24 05:15
Airport Marshall Islands International Airport (PKMJ)
Time Latitude Longitude Altitude Speed Heading
2026-04-24 05:10 7.03503 171.09732 1905 ft 181 kts 135°
2026-04-24 05:10 7.03468 171.09763 1894 ft 181 kts 134°
2026-04-24 05:10 7.02825 171.10782 1750 ft 170 kts 104°
2026-04-24 05:10 7.02770 171.11983 1755 ft 170 kts 81°
2026-04-24 05:11 7.03050 171.13170 1761 ft 170 kts 76°
2026-04-24 05:11 7.03348 171.14334 1756 ft 170 kts 76°
2026-04-24 05:11 7.03636 171.15498 1759 ft 170 kts 76°
2026-04-24 05:11 7.03924 171.16670 1756 ft 170 kts 76°
2026-04-24 05:12 7.04197 171.17783 1766 ft 148 kts 76°
2026-04-24 05:12 7.04436 171.18756 1564 ft 140 kts 76°
2026-04-24 05:12 7.04662 171.19678 1399 ft 129 kts 76°
2026-04-24 05:12 7.04871 171.20531 1224 ft 122 kts 76°
2026-04-24 05:13 7.05269 171.22162 869 ft 119 kts 77°
2026-04-24 05:13 7.05472 171.22969 604 ft 116 kts 77°
2026-04-24 05:13 7.05674 171.23753 426 ft 115 kts 77°
2026-04-24 05:14 7.05859 171.24539 313 ft 115 kts 75°
2026-04-24 05:14 7.06043 171.25323 200 ft 116 kts 76°
2026-04-24 05:14 7.06242 171.26125 61 ft 115 kts 77°
2026-04-24 05:14 7.06426 171.26846 17 ft 94 kts 76°
2026-04-24 05:15 7.06549 171.27385 20 ft 66 kts 78°
2026-04-24 05:15 7.06632 171.27731 23 ft 22 kts 75°
2026-04-24 05:15 7.06670 171.27889 21 ft 23 kts 77°
2026-04-24 05:15 7.06691 171.27982 18 ft 4 kts 76°
2026-04-24 05:16 7.06704 171.28030 17 ft 9 kts 76°
2026-04-24 05:16 7.06745 171.28079 16 ft 11 kts
2026-04-24 05:16 7.06795 171.28075 16 ft 5 kts 359°
2026-04-24 05:16 7.06833 171.28099 16 ft 8 kts 60°
2026-04-24 05:17 7.06850 171.28155 17 ft 0 kts 76°
2026-04-24 05:17 7.06853 171.28165 17 ft 2 kts 65°
2026-04-24 05:17 7.06833 171.28168 17 ft 5 kts 152°
2026-04-24 05:17 7.06836 171.28201 17 ft 6 kts
2026-04-24 05:18 7.06844 171.28198 17 ft 0 kts 333°